Find Starlink 11359

NORAD ID: 61884 Int'l Des: 2024-204 Owner: SPXS Country: US Constellation: starlink operational
LEOCIRCULAR

Live Position

Loading 3D Globe...

About Starlink 11359

Description loading...

Upcoming Passes

Passes for default location (London). Set your location on the main map for personalized predictions.

Altitude History

Loading altitude history...

Two-Line Element Set

1 61884U 24204L 26121.32823075 .00000525 00000-0 91885-5 0 9999
2 61884 53.1596 96.6636 0000990 73.3951 286.7176 15.69714046 85182
Epoch: May 1, 2026 • Age: 12 hours

Current Status

Altitude 362.5 km
Velocity 7.69 km/s
Sub-Earth Point -10.17°S, 74°W
Launch Date Nov 9, 2024
Age 1.4 years
Type internet

Technical Details

Classification Payload
Mass 960.00 kg
Dry Mass 910.00 kg
Total Mass 960.00 kg
Length 0.30 m
Diameter 4.10 m
Span 29.00 m
Shape Box + pan
Manufacturer SPXS
Bus Type Starlink V2MD
Phase Status In Orbit
Owner/State SPXS/US

Most Searched